EDT,Max TemperatureF,Mean TemperatureF,Min TemperatureF,Max Dew PointF,MeanDew PointF,Min DewpointF,Max Humidity, Mean Humidity, Min Humidity, Max Sea Level PressureIn, Mean Sea Level PressureIn, Min Sea Level PressureIn, Max VisibilityMiles, Mean VisibilityMiles, Min VisibilityMiles, Max Wind SpeedMPH, Mean Wind SpeedMPH, Max Gust SpeedMPH,PrecipitationIn, CloudCover, Events, WindDirDegrees
2013-5-1,71,63,55,54,52,48,88,68,46,30.29,30.25,30.18,10,10,10,9,6,,0.00,3,,131
2013-5-2,69,61,53,54,51,48,88,73,56,30.30,30.26,30.22,10,10,10,10,5,22,0.00,5,,135
2013-5-3,64,58,51,50,44,34,88,63,34,30.24,30.16,30.10,10,10,10,10,5,23,0.00,1,,137
2013-5-4,60,53,46,46,41,34,81,61,47,30.09,30.05,30.00,10,10,10,13,6,22,0.00,3,Rain,121
2013-5-5,51,48,44,52,47,41,100,91,71,30.04,29.92,29.87,10,9,5,9,7,21,0.14,8,Rain,89
2013-5-6,64,58,51,55,52,50,100,90,59,29.93,29.87,29.83,10,9,4,10,5,18,0.23,6,Rain-Thunderstorm,89
2013-5-7,55,50,46,54,51,46,100,100,94,29.98,29.95,29.90,10,8,0,8,2,,0.11,6,Rain-Thunderstorm,304
2013-5-8,62,56,50,59,53,50,100,94,72,30.09,30.01,29.94,10,8,0,16,4,21,0.00,7,Fog-Rain,266
2013-5-9,73,60,48,59,54,48,100,78,53,30.16,30.12,30.06,10,9,0,10,4,,0.12,4,Fog-Rain,208
2013-5-10,69,63,57,59,55,52,94,75,60,30.15,30.06,29.99,10,10,10,18,7,28,0.00,4,Rain,209
2013-5-11,68,60,51,61,56,46,100,86,68,30.00,29.95,29.91,10,9,3,21,12,26,0.05,7,Rain,250
2013-5-12,55,48,41,50,37,32,100,67,41,30.12,30.05,29.96,10,10,2,15,6,22,0.08,5,Rain,302
2013-5-13,59,47,35,36,32,30,87,57,36,30.21,30.16,30.11,10,10,10,16,5,28,0.00,4,,281
2013-5-14,69,53,37,54,41,32,81,58,42,30.23,30.16,30.05,10,10,10,21,6,33,0.00,1,,226
2013-5-15,82,71,60,61,56,52,77,65,35,30.17,30.10,30.05,10,10,10,20,13,26,0.00,0,,228
2013-5-16,77,68,59,59,55,50,100,68,44,30.12,30.08,30.05,10,10,10,13,7,18,0.00,0,,249
2013-5-17,75,65,55,64,59,54,100,83,61,30.18,30.14,30.09,10,9,1,7,3,,0.86,5,Rain-Thunderstorm,184
2013-5-18,68,64,59,64,61,59,100,92,78,30.17,30.13,30.10,10,9,4,10,4,,0.03,7,Rain-Thunderstorm,166
2013-5-19,77,70,62,68,63,61,100,90,61,30.15,30.11,30.07,10,9,5,10,6,20,0.00,5,Rain-Thunderstorm,191
2013-5-20,77,68,59,68,64,59,100,89,65,30.20,30.13,30.09,10,8,1,12,6,,0.28,4,Rain-Thunderstorm,189
2013-5-21,80,70,60,68,64,57,100,82,58,30.14,30.08,30.02,10,10,5,23,7,34,0.00,3,Rain,201
2013-5-22,80,70,60,64,60,55,100,78,48,30.05,30.00,29.95,10,10,5,18,7,26,0.09,3,Rain-Thunderstorm,196
2013-5-23,73,64,55,63,59,55,100,89,60,30.04,29.99,29.94,10,8,0,16,6,29,0.34,6,Fog-Rain-Thunderstorm,238
2013-5-24,60,52,44,55,45,37,100,81,45,30.30,30.19,30.02,10,8,0,15,8,29,0.13,5,Rain,321
2013-5-25,62,50,37,46,40,36,100,65,37,30.38,30.32,30.26,10,10,10,10,4,17,0.00,2,,329
2013-5-26,69,60,50,52,46,41,87,65,49,30.33,30.29,30.26,10,10,10,9,3,16,0.00,5,Rain,358
2013-5-27,77,65,53,59,54,46,88,66,50,30.28,30.24,30.17,10,10,10,12,4,17,0.00,4,,194
2013-5-28,78,69,60,61,58,55,82,65,44,30.27,30.21,30.16,10,10,10,20,8,25,0.00,1,,203
2013-5-29,80,70,59,63,59,55,88,66,47,30.30,30.25,30.19,10,10,10,14,7,18,0.00,1,,202
2013-5-30,82,71,60,63,58,55,88,62,39,30.33,30.27,30.21,10,10,10,14,6,24,0.00,0,,169
2013-5-31,82,72,62,63,60,55,83,64,45,30.28,30.22,30.16,10,10,10,13,8,20,0.00,1,,180